DB0DUS-10 Weather Reports


time (UTC)temp
C
wind
direction
speed
KPH
gust
KPH
rain 1hr
cm
rain 24hr
cm
rain mn
cm
humidity
%
barometer
mb
20260506112259 11 322 11.3 17.7 0.08 2.24 1.98 91 1007.7
20260506110759 11 336 12.9 22.5 0.08 2.24 1.98 91 1007.6
20260506105759 11 26 12.9 22.5 0.05 2.21 1.96 91 1007.6
20260506103759 11 319 8.0 19.3 0.05 2.18 1.93 91 1007.5
20260506103259 11 334 11.3 22.5 0.05 2.18 1.93 91 1007.4
20260506100759 11 319 17.7 19.3 0.05 2.16 1.91 91 1007.3
20260506094300 11 338 6.4 14.5 0.05 2.13 1.88 92 1007.0
20260506093759 11 319 4.8 22.5 0.08 2.13 1.88 92 1007.0
20260506091801 11 312 12.9 16.1 0.08 2.13 1.88 92 1006.9
20260506090759 11 323 11.3 16.1 0.08 2.11 1.85 92 1006.8
20260506085300 11 358 4.8 19.3 0.08 2.08 1.83 93 1006.7
20260506083759 11 23 8.0 12.9 0.08 2.06 1.80 93 1006.5
20260506082800 11 355 6.4 11.3 0.08 2.06 1.80 93 1006.5
20260506080759 11 316 12.9 19.3 0.08 2.03 1.78 94 1006.4
20260506080300 11 305 17.7 22.5 0.10 2.03 1.78 94 1006.3
20260506071300 10 282 6.4 20.9 0.08 1.96 1.70 94 1006.4
20260506070759 10 28 9.7 19.3 0.08 1.96 1.70 94 1006.3
20260506062300 10 288 8.0 14.5 0.15 1.91 1.65 94 1006.2
20260506060759 10 8 8.0 12.9 0.15 1.88 1.63 94 1006.1
20260506050759 10 330 9.7 16.1 0.13 1.73 1.47 95 1006.0
20260506044300 10 113 3.2 11.3 0.20 1.68 1.42 95 1005.9
20260506043759 10 268 1.6 12.9 0.23 1.70 1.42 95 1006.0
20260506041801 10 317 1.6 11.3 0.33 1.65 1.37 95 1005.9
20260506040759 10 341 11.3 19.3 0.36 1.63 1.35 95 1005.9
20260506035300 10 16 4.8 19.3 0.33 1.55 1.27 95 1005.8
20260506033759 10 326 0.0 14.5 0.33 1.47 1.19 95 1005.9
20260506032800 10 268 8.0 16.1 0.25 1.37 1.09 95 1006.0
20260506030759 10 317 8.0 16.1 0.25 1.27 0.99 95 1006.1
20260506030300 10 316 8.0 14.5 0.28 1.24 0.97 94 1006.0
20260506023800 10 289 8.0 14.5 0.38 1.19 0.86 94 1006.3
20260506021300 10 336 6.4 14.5 0.36 1.09 0.76 94 1006.4
20260506020800 10 340 9.7 16.1 0.36 1.07 0.74 94 1006.4
20260506014800 10 286 12.9 14.5 0.23 0.89 0.56 94 1006.5
20260506013800 10 323 11.3 16.1 0.20 0.84 0.48 94 1006.5
20260506012353 10 307 6.4 16.1 0.18 0.79 0.43 94 1006.6
20260506012300 10 307 6.4 16.1 0.18 0.79 0.43 94 1006.6
20260506010800 10 315 4.8 17.7 0.18 0.74 0.38 94 1006.6
20260506005800 10 317 12.9 14.5 0.18 0.71 0.36 94 1006.7
20260506003800 11 338 9.7 16.1 0.15 0.64 0.28 94 1006.9
20260506003301 11 288 9.7 16.1 0.18 0.64 0.28 94 1006.9
20260506000800 11 317 9.7 16.1 0.15 0.56 0.20 94 1007.1
20260505234301 11 303 6.4 16.1 0.23 0.51 0.15 93 1007.4
20260505233800 11 312 11.3 16.1 0.20 0.48 0.13 93 1007.4
20260505231802 11 329 11.3 16.1 0.23 0.43 0.08 93 1007.5
20260505230800 11 324 14.5 16.1 0.23 0.41 0.05 93 1007.5
20260505225301 11 254 1.6 17.7 0.18 0.33 0.33 93 1007.6
20260505223800 11 326 3.2 14.5 0.15 0.28 0.28 92 1007.7
20260505222801 11 315 9.7 14.5 0.10 0.23 0.23 92 1007.7
20260505220800 11 347 3.2 12.9 0.08 0.18 0.18 92 1007.8
20260505220301 11 306 9.7 12.9 0.08 0.18 0.18 91 1007.7
20260505213800 11 272 3.2 14.5 0.03 0.13 0.13 91 1008.0
20260505211301 11 310 8.0 16.1 0.03 0.13 0.13 91 1008.2
20260505210800 11 310 8.0 17.7 0.00 0.10 0.10 91 1008.2
20260505204801 11 357 8.0 14.5 0.00 0.10 0.10 90 1008.2
20260505203800 11 317 11.3 17.7 0.00 0.13 0.10 90 1008.3
20260505202301 11 348 4.8 16.1 0.00 0.13 0.10 89 1008.3
20260505200800 11 327 9.7 14.5 0.00 0.13 0.10 88 1008.2
20260505195801 11 310 4.8 14.5 0.00 0.13 0.10 88 1008.3
20260505193800 11 327 6.4 16.1 0.00 0.13 0.10 87 1008.3
20260505193301 12 358 9.7 24.1 0.00 0.13 0.10 87 1008.3
20260505190800 12 358 9.7 16.1 0.00 0.13 0.10 86 1008.2
20260505184301 12 329 9.7 17.7 0.00 0.13 0.10 85 1008.1
20260505183800 12 310 12.9 17.7 0.00 0.13 0.10 85 1008.2
20260505181801 12 333 6.4 16.1 0.00 0.13 0.10 85 1008.2
20260505180800 12 315 14.5 19.3 0.00 0.13 0.10 84 1008.2
20260505175301 12 331 4.8 17.7 0.00 0.13 0.10 84 1008.2
20260505173800 12 43 3.2 19.3 0.00 0.13 0.10 84 1008.3
20260505172801 13 11 11.3 17.7 0.00 0.13 0.10 83 1008.3
20260505170801 13 46 8.0 16.1 0.00 0.13 0.10 83 1008.3
20260505170301 13 26 9.7 12.9 0.00 0.13 0.10 83 1008.2
20260505163801 13 302 22.5 22.5 0.00 0.18 0.10 82 1008.3
20260505161301 13 336 3.2 19.3 0.00 0.18 0.10 81 1008.4
20260505160801 13 0 14.5 19.3 0.00 0.18 0.10 81 1008.4
20260505152304 13 317 14.5 19.3 0.00 0.30 0.10 80 1008.7
20260505150801 14 22 11.3 24.1 0.00 0.30 0.10 79 1008.8
20260505123801 15 334 11.3 20.9 0.00 0.58 0.10 77 1009.5
20260505122802 15 310 8.0 19.3 0.00 0.58 0.10 79 1009.6
20260505120801 15 322 8.0 19.3 0.00 0.58 0.10 81 1009.6
20260505120452 15 351 9.7 17.7 0.00 0.58 0.10 81 1009.5
20260505120302 15 351 9.7 17.7 0.00 0.58 0.10 81 1009.5
20260505113801 15 312 14.5 20.9 0.00 0.58 0.10 82 1009.7